Location: Krasnoyarskiy Pitomnik
(51.1333°N, 71.6167°E)
Time: 10:17:02
(UTC+00:00)

NOSS 3-1 (A) - Pass Details

Date: 22 October 2021
Orbit: 721 x 1491 km, 63.4° (Epoch: 22 November)

Event Time Altitude Azimuth Distance (km) Brightness Sun altitude
Rises 13:54:13 0° 193° (SSW) 3,196 6.3 -17.5°
Reaches altitude 10° 13:56:36 10° 185° (S) 2,332 5.5 -17.9°
Maximum altitude 14:01:28 37° 118° (ESE) 1,301 3.7 -18.7°
Enters shadow 14:02:47 33° 89° (E) 1,443 3.8 -18.9°
